Weather History for Sheridan, WY

Change the Weather History Date:

Monday, January 30, 2012

  Actual Average Record
Temperature  
Mean Temperature 44 °F 24 °F  
Max Temperature 57 °F 37 °F 64 °F (1989)
Min Temperature 30 °F 12 °F -29 °F (1922)
Degree Days  
Heating Degree Days 21 41  
Month to date heating degree days 1104 1239  
Since 1 July heating degree days 3941 4422  
Cooling Degree Days 0 0  
Month to date cooling degree days 0 0  
Year to date cooling degree days 0 0  
Moisture  
Dew Point 21 °F    
Average Humidity 48    
Maximum Humidity 72    
Minimum Humidity 24    
Precipitation  
Precipitation 0.00 in 0.02 in 0.20 in (1988)
Month to date precipitation 0.35 0.54  
Year to date precipitation 0.35 0.54  
Sea Level Pressure  
Sea Level Pressure 29.68 in    
Wind  
Wind Speed 11 mph (WNW)    
Max Wind Speed 33 mph    
Max Gust Speed 39 mph    
Visibility 10 miles    
Events      
T = Trace of Precipitation, MM = Missing Value Source: NWS Daily Summary

Daily Weather History Graph

Daily Weather History Graph

Search for Another Location

Airport:

Trip Planner

Search our weather history database for the weather conditions in past years. The results will help you decide how hot, cold, wet, or windy it might be!

Date:

Astronomy

Jan. 30, 2012 Rise Set
Actual Time 7:29 AM MST 5:13 PM MST
Civil Twilight 6:58 AM MST 5:44 PM MST
Nautical Twilight 6:23 AM MST 6:19 PM MST
Astronomical Twilight 5:48 AM MST 6:53 PM MST
Moon 10:32 AM MST (1/30) 12:20 AM MST (1/30)
Length of Visible Light 10h 45m
Length of Day
9h 43m
Waxing Crescent, 46% of the Moon is Illuminated
Jan 30
Waxing Crescent
Jan 30
First Quarter
Feb 7
Full
Feb 14
Last Quarter
Feb 21
New

Hourly Weather History & Observations

Time (MST) Temp. Windchill Dew Point Humidity Pressure Visibility Wind Dir Wind Speed Gust Speed Precip Events Conditions
12:53 AM 43.0 °F 38.8 °F 19.9 °F 40% 29.71 in 10.0 mi West 6.9 mph - N/A   Clear
1:53 AM 46.9 °F - 19.0 °F 33% 29.68 in 10.0 mi SE 5.8 mph - N/A   Clear
2:53 AM 42.1 °F 39.2 °F 19.9 °F 41% 29.67 in 10.0 mi East 4.6 mph - N/A   Clear
3:53 AM 37.9 °F 34.4 °F 21.9 °F 53% 29.65 in 10.0 mi Variable 4.6 mph - N/A   Clear
4:53 AM 52.0 °F - 18.0 °F 26% 29.61 in 10.0 mi WSW 15.0 mph - N/A   Clear
5:02 AM 55.4 °F - 15.8 °F 21% 29.64 in 10.0 mi WSW 18.4 mph 32.2 mph N/A   Clear
5:53 AM 46.9 °F - 19.0 °F 33% 29.62 in 10.0 mi NW 8.1 mph - N/A   Clear
6:53 AM 48.0 °F - 18.0 °F 30% 29.61 in 10.0 mi WNW 9.2 mph - N/A   Clear
7:53 AM 50.0 °F - 17.1 °F 27% 29.62 in 10.0 mi NNW 10.4 mph - N/A   Clear
8:53 AM 46.0 °F 42.5 °F 19.0 °F 34% 29.63 in 10.0 mi NNW 6.9 mph - N/A   Overcast
9:53 AM 48.0 °F - 19.0 °F 32% 29.61 in 10.0 mi NW 12.7 mph - N/A   Mostly Cloudy
10:53 AM 53.1 °F - 18.0 °F 25% 29.62 in 10.0 mi SW 8.1 mph - N/A   Scattered Clouds
11:53 AM 55.0 °F - 19.0 °F 24% 29.59 in 10.0 mi WNW 5.8 mph - N/A   Partly Cloudy
12:53 PM 55.9 °F - 21.0 °F 26% 29.59 in 10.0 mi West 17.3 mph 23.0 mph N/A   Partly Cloudy
1:53 PM 54.0 °F - 19.9 °F 26% 29.59 in 10.0 mi WNW 13.8 mph 25.3 mph N/A   Partly Cloudy
2:53 PM 53.1 °F - 19.9 °F 27% 29.62 in 10.0 mi West 20.7 mph 26.5 mph N/A   Mostly Cloudy
3:53 PM 45.0 °F 41.2 °F 23.0 °F 42% 29.67 in 10.0 mi West 6.9 mph - N/A   Partly Cloudy
4:53 PM 45.0 °F 36.4 °F 26.1 °F 48% 29.67 in 10.0 mi NW 23.0 mph 39.1 mph N/A   Mostly Cloudy
5:53 PM 41.0 °F 34.3 °F 24.8 °F 53% 29.71 in 10.0 mi West 11.5 mph - N/A   Clear
6:53 PM 37.9 °F 31.5 °F 23.0 °F 55% 29.76 in 10.0 mi WNW 9.2 mph - N/A   Clear
7:53 PM 39.9 °F 30.8 °F 21.9 °F 49% 29.78 in 10.0 mi NW 18.4 mph 27.6 mph N/A   Scattered Clouds
8:53 PM 42.1 °F 33.6 °F 23.0 °F 47% 29.81 in 10.0 mi NW 18.4 mph 28.8 mph N/A   Overcast
9:53 PM 30.0 °F 22.4 °F 23.0 °F 75% 29.84 in 10.0 mi West 8.1 mph - N/A   Clear
10:53 PM 30.9 °F 22.2 °F 23.0 °F 72% 29.84 in 10.0 mi West 10.4 mph - N/A   Clear
11:53 PM 34.0 °F 27.2 °F 21.9 °F 61% 29.84 in 10.0 mi NW 8.1 mph - N/A   Clear